Location: Boitzum
(52.1496°N, 9.6943°E)
Time: 01:31:24
(UTC+00:00)

Cosmos 2074 Rocket - Pass Details

Date: 23 April 2026
Orbit: 967 x 984 km, 82.9° (Epoch: 19 May)

Event Time Altitude Azimuth Distance (km) Brightness Sun altitude
Rises 01:59:09 0° 357° (N) 3,706 7.8 -16.8°
Reaches altitude 10° 02:04:13 10° 32° (NNE) 2,753 7.7 -16.3°
Maximum altitude 02:05:52 11° 47° (NE) 2,678 7.6 -16.1°
Drops below altitude 10° 02:07:31 10° 63° (ENE) 2,749 7.5 -15.9°
Sets 02:12:33 0° 98° (E) 3,690 7.6 -15.4°
